This is the latest recevied weather packets stored in our database for station/object EB2EMZ-5. If no packets are shown the sender has not sent any weather packets the latest 10 day(s).
| Time | Temp. | Humidity | Pressure | Rain* | Wind** | Luminosity | Snow |
|---|---|---|---|---|---|---|---|
| 1777850629 | 22.78° C | 34% | 998.4 hPa | - | - | - | - |
| 1777850329 | 22.78° C | 34% | 998.4 hPa | - | - | - | - |
| 1777850029 | 23.33° C | 34% | 998.5 hPa | - | - | - | - |
| 1777849729 | 22.78° C | 34% | 998.4 hPa | - | - | - | - |
| 1777849429 | 22.78° C | 33% | 998.4 hPa | - | - | - | - |
| 1777849129 | 23.33° C | 34% | 998.4 hPa | - | - | - | - |
| 1777848829 | 23.33° C | 34% | 998.4 hPa | - | - | - | - |
| 1777848529 | 23.33° C | 33% | 998.6 hPa | - | - | - | - |
| 1777848229 | 23.33° C | 33% | 998.6 hPa | - | - | - | - |
| 1777847929 | 23.33° C | 33% | 998.6 hPa | - | - | - | - |
| 1777847628 | 23.33° C | 33% | 998.6 hPa | - | - | - | - |
| 1777847328 | 23.33° C | 33% | 998.5 hPa | - | - | - | - |
| 1777847028 | 23.33° C | 33% | 998.6 hPa | - | - | - | - |
| 1777846728 | 23.89° C | 33% | 998.5 hPa | - | - | - | - |
| 1777846428 | 23.89° C | 33% | 998.1 hPa | - | - | - | - |
| 1777846128 | 23.89° C | 33% | 997.8 hPa | - | - | - | - |
| 1777845828 | 23.89° C | 33% | 997.6 hPa | - | - | - | - |
| 1777845528 | 23.89° C | 33% | 998 hPa | - | - | - | - |
| 1777845228 | 24.44° C | 33% | 998.1 hPa | - | - | - | - |
| 1777844928 | 24.44° C | 32% | 998.4 hPa | - | - | - | - |
| 1777844628 | 24.44° C | 32% | 998.3 hPa | - | - | - | - |
| 1777844328 | 24.44° C | 32% | 998.4 hPa | - | - | - | - |
| 1777844028 | 24.44° C | 32% | 998.3 hPa | - | - | - | - |
| 1777843728 | 24.44° C | 32% | 998.1 hPa | - | - | - | - |
| 1777843428 | 25° C | 32% | 997.9 hPa | - | - | - | - |
* Rain since midnight (hover to see other rain measurements)
** Current wind speed in m/s (hover to see current wind gust speed)